Regional Weather Roundup
Issued by NWS Northern Indiana

Home | Current Version | Previous Version | Graphics & Text | Print | Product List | Glossary On
Versions: 1 2 3 4 5 6 7 8 9 10 11 12 13 14 15 16 17 18 19 20 21 22 23 24 25 26 27 28 29 30 31 32 33 34 35 36 37 38 39 40 41 42 43 44 45 46 47 48 49 50
000
ASUS43 KIWX 291100
RWRIWX

KIWX WEATHER ROUNDUP
NATIONAL WEATHER SERVICE NORTHERN INDIANA
700 AM EDT FRI MAY 29 2015

NOTE: "FAIR" INDICATES FEW OR NO CLOUDS BELOW 12,000 FEET WITH NO
SIGNIFICANT WEATHER AND/OR OBSTRUCTIONS TO VISIBILITY.

* THESE STATIONS ARE NOT UNDER NWS QUALITY CONTROL. THEY ALSO MAY NOT
  REPORT WEATHER SUCH AS PRECIPITATION OR FOG.

INZ001>027-291200-
NORTHERN INDIANA

CITY           SKY/WX    TMP DP  RH WIND       PRES   REMARKS
GARY*          CLOUDY    68  64  88 S6        30.05S
SOUTH BEND     MOCLDY    65  60  84 E6        30.08F
GOSHEN         PTCLDY    63  59  87 SE7       30.10F FOG
ANGOLA*        CLEAR     61  48  63 CALM      30.12F
FORT WAYNE     MOCLDY    63  60  90 CALM      30.13S
PERU/GRISSOM   MOCLDY    64  62  93 SE7       30.09S

$$
INZ028>050-291200-
CENTRAL INDIANA

CITY           SKY/WX    TMP DP  RH WIND       PRES   REMARKS
LAFAYETTE      MOCLDY    65  62  90 SE3       30.07S
KOKOMO*        MOCLDY    63  61  94 SE6       30.11R
MUNCIE*        PTCLDY    67  63  87 S5        30.13R FOG
INDIANAPOLIS   MOCLDY    65  62  90 SE7       30.09S

$$
MIZ043>046-050>051-056>058-064>065-071>073-077>080-291200-
SOUTHWEST LOWER MICHIGAN

CITY           SKY/WX    TMP DP  RH WIND       PRES   REMARKS
BATTLE CREEK   PTCLDY    64  57  78 SE6       30.12F
BENTON HARBOR  MOCLDY    64  59  83 SE8       30.06
COLDWATER*     CLEAR     61  57  86 SE7       30.12F
HILLSDALE*     CLEAR     63  60  90 SE6       30.14F
HOLLAND        MOCLDY    65  57  75 SE8       30.07F
GRAND RAPIDS   MOCLDY    63  56  78 SE9       30.09F
KALAMAZOO      PTCLDY    64  56  75 SE3       30.11F
STURGIS*       CLEAR     63  59  88 SE8       30.11F
THREE RIVERS*  FAIR      62  58  84 CALM      30.11S

$$
OHZ001>008-015>018-024>025-291200-
NORTHWEST OHIO

CITY           SKY/WX    TMP DP  RH WIND       PRES   REMARKS
DEFIANCE       PTCLDY    63  60  90 CALM      30.14S FOG
FINDLAY        CLOUDY    67  61  81 SE6       30.14S
TOLEDO EXPRESS CLEAR     61  58  90 SE3       30.14F
TOLEDO METCALF CLEAR     63  57  81 CALM      30.16S
LIMA           MOCLDY    67  62  84 SE6       30.15S

$$
AND FOR LAKE MICHIGAN COASTAL AND OPEN LAKE BUOY OBSERVATIONS

STATION/POSITION TEMP    WIND        PRES    VSBY  WAVE
                 AIR SEA DIR/SP/G                  HT/PER
                 (F)     (DEG/KT/KT) (MB)    (MI)  (FT/S)
CALUMET HARBOR    71     170/  6/  9   N/A
MICHIGAN CITY     69     130/ 10/ 12   N/A
BURNS HARBOR      70     170/  9/ 14 1017.6S
SAINT JOSEPH      65     100/  1/  5 1017.9F
SOUTH LAKE BUOY   47 38  150/ 14/ 14 1017.4F         1
4 MI NW BRIDGMAN  63 57  160/ 10/ 12   N/A           1
MICHIGAN CITY     63 55  170/  6/  8   N/A           0

$$
&&



USA.gov is the U.S. government's official web portal to all federal, state and local government web resources and services.